Regional Weather Roundup
Issued by NWS Charleston, SC

Current Version | Previous Version | Graphics & Text | Print | Product List | Glossary On
Versions: 1 2 3 4 5 6 7 8 9 10 11 12 13 14 15 16 17 18 19 20 21 22 23 24 25 26 27 28 29 30 31 32 33 34 35 36 37 38 39 40 41 42 43 44 45 46 47 48 49 50
000
ASUS42 KCHS 290828
RWRCHS

REGIONAL WEATHER ROUNDUP
NATIONAL WEATHER SERVICE CHARLESTON SC
400 AM EDT SUN MAY 29 2016

NOTE: "FAIR" INDICATES FEW OR NO CLOUDS BELOW 12,000 FEET WITH NO
SIGNIFICANT WEATHER AND/OR OBSTRUCTIONS TO VISIBILITY.

NOT ALL STATIONS ARE QUALITY CONTROLLED. USE DATA WITH CAUTION...
ESPECIALLY DEWPOINT OBSERVATIONS.

SCZ027-030-031-034>040-042>050-290900-
...SOUTHEAST SOUTH CAROLINA...

CITY           SKY/WX    TMP DP  RH WIND       PRES   REMARKS
N CHARLESTON   CLOUDY    73  70  90 NE12      29.92F
WATERFRONT PRK   N/A     73  72  96 NE13      29.91F
MOUNT PLEASANT CLOUDY    72  72 100 N6        29.92F FOG
JOHNS ISLAND   CLOUDY    73  73 100 NE9G16    29.91F
PINOPOLIS        N/A     73  72  94 NE15      29.87F
MONCKS CORNER  CLOUDY    68  66  94 N6        29.95S
SUMMERVILLE    CLOUDY    72  72 100 N7        29.95F
BEAUFORT MCAS  HVY RAIN  68  67  96 W14       29.94F FOG
BEAUFORT ARPT  RAIN      68  68 100 W8        29.93F
HILTON HEAD IS CLOUDY    70  70 100 VRB8G15   29.95F
WALTERBORO     CLOUDY    72  72 100 N7        29.96S
ALLENDALE      RAIN      66  66 100 NW12      29.98F

...SOUTHERN MIDLANDS AND PEE DEE...

CITY           SKY/WX    TMP DP  RH WIND       PRES   REMARKS
GEORGETOWN     PTSUNNY   72  70  94 NE9       29.95F
KINGSTREE      LGT RAIN  70  68  94 NE5       29.98F
ORANGEBURG     LGT RAIN  70  67  90 N8        30.00F
BARNWELL       HVY RAIN  68  68 100 NW7       30.02F
AIKEN          DRIZZLE   64  63  94 NW7       30.08F
MANNING        CLOUDY    70  68  94 N6        29.98F
COLUMBIA       LGT RAIN  71  67  87 NW7       30.02F
SUMTER         CLOUDY    70  68  94 N10       29.99S
FLORENCE       RAIN      72  70  93 NE13      30.01F
MYRTLE BEACH   CLOUDY    73  64  73 NE8       29.99F
N MYRTLE BEACH LGT RAIN  74  71  91 NE9G17    29.98F

$$

GAZ063-065-086>088-099>101-113>116-118-119-134>141-150-290900-
...SOUTHEAST GEORGIA...

CITY           SKY/WX    TMP DP  RH WIND       PRES   REMARKS
SAVANNAH ARPT  CLOUDY    68  66  93 NW13      29.97F
HUNTER AAF     MOCLDY    68  68 100 VRB7      29.95F
FORT STEWART   MOCLDY    68  65  90 W7        29.97F
STATESBORO     HVY RAIN  68  68  99 N10       30.00S
SYLVANIA       RAIN      69  67  94 N10       30.02R
CLAXTON        LGT RAIN  69  68  96 W6        30.01S

...CSRA...CENTRAL AND FAR SOUTHEAST GEORGIA...

CITY           SKY/WX    TMP DP  RH WIND       PRES   REMARKS
THOMSON        CLOUDY    69  69 100 CALM      30.11F
AUGUSTA-BUSH   RAIN      67  66  97 N5        30.05F FOG
AUGUSTA-DANIEL LGT RAIN  67  64  90 NW6       30.06F
SWAINSBORO     DRIZZLE   66  64  94 N3        30.04F
VIDALIA        CLOUDY    68  63  83 NW5       30.03F
EASTMAN        FAIR      66  66 100 CALM      30.07F
HAZLEHURST     FAIR      69  65  86 CALM      30.03S
ALMA           CLEAR     67  63  87 W3        30.03F
WAYCROSS       CLEAR     66  65  95 CALM      30.03S
JESUP          FAIR      63  61  94 NE3       30.02R
BAXLEY         FAIR      68  64  88 NW3       30.02F
BRUNSWICK      CLEAR     70  64  83 W5        30.01S
SAINT SIMONS   CLEAR     69  66  90 NW8       29.99F

$$

SCZ027-028-034-036>038-045-046-048>050-GAZ119-141-290900-
...LAKE AND SUPPLEMENTAL COASTAL OBSERVATIONS...

STATION/POSITION TIME  TEMP    WIND        PRES    WAVE   SWELL
                       AIR SEA DIR/SP/G            HT/PER HT/PER/DIR
                 (UTC) (F)     (DEG/KT/KT) (MB)    (FT/S) (FT/S/D)
WINYAH BAY       0745   74      60/ 17     1014.0S
LAKE MURRAY      0700   70     300/  4/  8 1017.3F
ACE BASIN NERRS  0700   70     350/  2     1014.0F
FORT PULASKI     0800   69 76  310/ 13/ 16 1014.6F
SAPELO ISLAND    0800   70     290/  9     1015.0S

$$

ANZ835-935-AMZ111-154-330-350-352-354-370-450-454-472-290900-
...C-MAN AND BUOY OBSERVATIONS...

STATION/POSITION TIME  TEMP    WIND        PRES    WAVE   SWELL
                       AIR SEA DIR/SP/G            HT/PER HT/PER/DIR
                 (UTC) (F)     (DEG/KT/KT) (MB)    (FT/S) (FT/S/D)
BUOY 41004       0750   78 78  100/ 17/ 21 1011.5F   7/ 8   3/13
BUOY 41008       0750   72 75  320/ 16/ 21 1014.2F   5/ 6   3/ 80/ 8
FOLLY BEACH CMAN 0800   74      30/ 23/ 26 1012.9F
CAPERS NEARSHORE 0808   74 75   50/ 17/ 23 1012.6F
FRIPP NEARSHORE  0708   71 75  330/ 14/ 19 1013.0F


STATION/POSITION TIME  TEMP    WIND        PRES    WAVE   SWELL
                       AIR SEA DIR/SP/G            HT/PER HT/PER/DIR
                 (UTC) (F)     (DEG/KT/KT) (MB)    (FT/S) (FT/S/D)
5E ST. MARYS GA  0801      78                N/A     4/ 7
FRYING PAN BUOY  0800   78 78  140/ 17/ 21 1015.0F
BUOY 41025       0750   78 79  140/ 16/ 17 1018.5F   4/ 8   2/140/ 8
CAPE LOOKOUT NC  0800   76     130/ 11/ 12 1017.4F
BUOY 41002       0750   75 75  120/ 14/ 16 1017.9F   4/ 7   2/100/ 7
BUOY 41010       0720   79 79  210/  8/ 10 1016.5F
ST AUGUSTINE FL  0800   70 78  280/  4/  5 1017.6F


$$




USA.gov is the U.S. government's official web portal to all federal, state and local government web resources and services.